This is the latest recevied weather packets stored in our database for station/object EA3GKP-10. If no packets are shown the sender has not sent any weather packets the latest 1 day(s).
| Time | Temp. | Humidity | Pressure | Rain* | Wind** | Luminosity | Snow |
|---|---|---|---|---|---|---|---|
| 1777999576 | 20.56° C | - | - | 0 mm | 1.79 m/s, 359° | - | - |
| 1777999274 | 21.67° C | - | - | 0 mm | 0 m/s | - | - |
| 1777998970 | 21.11° C | - | - | 0 mm | 1.34 m/s, 359° | - | - |
| 1777998666 | 21.11° C | - | - | 0 mm | 2.24 m/s, 359° | - | - |
| 1777998363 | 21.67° C | - | - | 0 mm | 0 m/s | - | - |
| 1777998059 | 21.67° C | - | - | 0 mm | 2.68 m/s, 90° | - | - |
| 1777997751 | 21.67° C | - | - | 0 mm | 0.89 m/s, 359° | - | - |
| 1777997137 | 21.11° C | - | - | 0 mm | 2.68 m/s, 359° | - | - |
| 1777996830 | 21.67° C | - | - | 0 mm | 0 m/s | - | - |
| 1777996539 | 21.11° C | - | - | 0 mm | 0 m/s | - | - |
| 1777996224 | 21.11° C | - | - | 0 mm | 1.34 m/s, 359° | - | - |
| 1777995921 | 21.11° C | - | - | 0 mm | 1.34 m/s, 359° | - | - |
| 1777995618 | 21.11° C | - | - | 0 mm | 2.68 m/s, 359° | - | - |
| 1777995315 | 22.22° C | - | - | 0 mm | 1.34 m/s, 359° | - | - |
| 1777995012 | 22.22° C | - | - | 0 mm | 0.89 m/s, 359° | - | - |
| 1777994709 | 21.11° C | - | - | 0 mm | 3.13 m/s, 98° | - | - |
| 1777994406 | 21.67° C | - | - | 0 mm | 1.79 m/s, 91° | - | - |
| 1777994102 | 20.56° C | - | - | 0 mm | 2.24 m/s, 73° | - | - |
| 1777993797 | 22.22° C | - | - | 0 mm | 0.89 m/s, 359° | - | - |
| 1777993490 | 22.78° C | - | - | 0 mm | 0 m/s | - | - |
| 1777993184 | 22.78° C | - | - | 0 mm | 0 m/s | - | - |
| 1777992877 | 22.78° C | - | - | 0 mm | 1.79 m/s, 359° | - | - |
| 1777992570 | 21.67° C | - | - | 0 mm | 2.68 m/s, 359° | - | - |
| 1777992262 | 22.78° C | - | - | 0 mm | 0 m/s | - | - |
| 1777991655 | 22.78° C | - | - | 0 mm | 2.24 m/s, 87° | - | - |
* Rain latest hour (hover to see other rain measurements)
** Current wind speed in m/s (hover to see current wind gust speed)